Terminal Aerodrome Forecast
Issued by NWS

Current Version | Previous Version | Graphics & Text | Print | Product List | Glossary On
Versions: 1 2 3 4 5 6 7 8 9 10 11 12 13 14 15 16
000
FTUS41 KILN 271500 AAA
TAFLCK
TAF AMD
KLCK 271508Z 2715/2812 VRB03KT P6SM SCT050 BKN250
     FM271700 34006KT P6SM VCTS BKN050CB
     FM272100 36005KT P6SM BKN120
     FM280000 03004KT P6SM SCT250=

USA.gov is the U.S. government's official web portal to all federal, state and local government web resources and services.